TimeCST,TemperatureF,Dew PointF,Humidity,Sea Level PressureIn,VisibilityMPH,Wind Direction,Wind SpeedMPH,Gust SpeedMPH,PrecipitationIn,Events,Conditions,WindDirDegrees,DateUTC
12:56 AM,48.0,44.1,86,30.27,7.0,NW,3.5,-,N/A,,Overcast,320,2012-11-28 06:56:00
1:31 AM,48.2,44.6,87,30.27,7.0,NNW,4.6,-,N/A,,Overcast,340,2012-11-28 07:31:00
1:56 AM,48.0,44.1,86,30.28,7.0,NNW,6.9,-,N/A,,Overcast,330,2012-11-28 07:56:00
2:24 AM,46.4,44.6,93,30.29,7.0,NW,8.1,-,N/A,,Overcast,320,2012-11-28 08:24:00
2:46 AM,46.4,44.6,93,30.29,7.0,NW,5.8,-,N/A,,Overcast,320,2012-11-28 08:46:00
2:56 AM,46.9,44.1,90,30.29,7.0,NW,6.9,-,N/A,,Overcast,320,2012-11-28 08:56:00
3:56 AM,46.9,43.0,86,30.30,8.0,NW,4.6,-,N/A,,Overcast,320,2012-11-28 09:56:00
4:56 AM,46.9,41.0,80,30.32,10.0,NNW,8.1,-,N/A,,Overcast,330,2012-11-28 10:56:00
5:56 AM,46.0,39.0,76,30.33,10.0,North,12.7,18.4,N/A,,Overcast,350,2012-11-28 11:56:00
6:56 AM,45.0,37.9,76,30.35,10.0,North,10.4,-,N/A,,Overcast,350,2012-11-28 12:56:00
7:29 AM,44.6,37.4,76,30.36,10.0,North,9.2,-,N/A,,Scattered Clouds,360,2012-11-28 13:29:00
7:56 AM,45.0,37.9,76,30.36,10.0,North,11.5,-,N/A,,Partly Cloudy,360,2012-11-28 13:56:00
8:56 AM,48.0,37.9,68,30.39,10.0,NW,5.8,-,N/A,,Clear,320,2012-11-28 14:56:00
9:56 AM,48.9,37.9,66,30.39,10.0,Variable,4.6,-,N/A,,Clear,0,2012-11-28 15:56:00
10:56 AM,53.1,37.0,55,30.38,10.0,NNW,8.1,-,N/A,,Clear,340,2012-11-28 16:56:00
11:56 AM,55.9,35.1,45,30.35,10.0,North,10.4,-,N/A,,Clear,10,2012-11-28 17:56:00
12:56 PM,57.0,34.0,42,30.33,10.0,NNW,9.2,-,N/A,,Clear,330,2012-11-28 18:56:00
1:56 PM,59.0,32.0,36,30.31,10.0,NNW,6.9,-,N/A,,Clear,340,2012-11-28 19:56:00
2:56 PM,59.0,30.0,33,30.30,10.0,North,9.2,-,N/A,,Clear,10,2012-11-28 20:56:00
3:56 PM,57.9,32.0,37,30.31,10.0,North,9.2,-,N/A,,Clear,350,2012-11-28 21:56:00
4:56 PM,53.1,32.0,45,30.32,10.0,Calm,Calm,-,N/A,,Clear,0,2012-11-28 22:56:00
5:56 PM,46.0,37.0,71,30.34,10.0,Calm,Calm,-,N/A,,Clear,0,2012-11-28 23:56:00
6:56 PM,43.0,36.0,76,30.35,10.0,Calm,Calm,-,N/A,,Clear,0,2012-11-29 00:56:00
7:56 PM,39.9,35.1,83,30.36,10.0,Calm,Calm,-,N/A,,Clear,0,2012-11-29 01:56:00
8:56 PM,39.0,34.0,82,30.36,10.0,Calm,Calm,-,N/A,,Clear,0,2012-11-29 02:56:00
9:56 PM,37.9,33.1,83,30.36,10.0,North,4.6,-,N/A,,Clear,360,2012-11-29 03:56:00
10:56 PM,35.1,32.0,89,30.35,10.0,NNW,3.5,-,N/A,,Clear,340,2012-11-29 04:56:00
11:56 PM,37.0,30.9,79,30.35,10.0,Calm,Calm,-,N/A,,Clear,0,2012-11-29 05:56:00